Location: Wien
(48.2082°N, 16.3738°E)
Time: 12:39:21
(UTC+02:00)

Tiros 1 despin weight - Pass Details

Date: 19 September 2024
Orbit: 573 x 615 km, 48.2° (Epoch: 06 October)

Event Time Altitude Azimuth Distance (km) Brightness Sun altitude
Rises 03:01:18 0° 231° (SW) 2,851 - -32.7°
Reaches altitude 10° 03:03:39 10° 225° (SW) 1,956 - -32.4°
Maximum altitude 03:07:56 44° 153° (SSE) 847 - -31.9°
Exits shadow 03:10:39 21° 91° (E) 1,412 ? -31.6°
Drops below altitude 10° 03:12:15 10° 82° (E) 1,980 ? -31.4°
Sets 03:14:39 0° 76° (ENE) 2,889 ? -31.2°
